New Haven Weather Center

Moon Phase Calendar



Online Cameras

 


      

Current Conditions in New Haven
10/29/2020 6:07:32 AM

48°F
Feels Like 46
Clouds
Humidity
93%
Pressure
29.91"
Wind
3 mph (NE)
Dew Point
46°F
UV Index
3/10 (Moderate)
Visibility
6 mi

Hourly Forecast

Date & Time Thu, Oct 29
6:00 AM
Thu, Oct 29
7:00 AM
Thu, Oct 29
8:00 AM
Thu, Oct 29
9:00 AM
Thu, Oct 29
10:00 AM
Thu, Oct 29
11:00 AM
Thu, Oct 29
12:00 PM
Thu, Oct 29
1:00 PM
Thu, Oct 29
2:00 PM
Thu, Oct 29
3:00 PM
Thu, Oct 29
4:00 PM
Thu, Oct 29
5:00 PM
Thu, Oct 29
6:00 PM
Thu, Oct 29
7:00 PM
Thu, Oct 29
8:00 PM
Thu, Oct 29
9:00 PM
Thu, Oct 29
10:00 PM
Thu, Oct 29
11:00 PM
Fri, Oct 30
12:00 AM
Fri, Oct 30
1:00 AM
Fri, Oct 30
2:00 AM
Fri, Oct 30
3:00 AM
Fri, Oct 30
4:00 AM
Fri, Oct 30
5:00 AM
Fri, Oct 30
6:00 AM
Fri, Oct 30
7:00 AM
Fri, Oct 30
8:00 AM
Fri, Oct 30
9:00 AM
Fri, Oct 30
10:00 AM
Fri, Oct 30
11:00 AM
Fri, Oct 30
12:00 PM
Fri, Oct 30
1:00 PM
Fri, Oct 30
2:00 PM
Fri, Oct 30
3:00 PM
Fri, Oct 30
4:00 PM
Fri, Oct 30
5:00 PM
Fri, Oct 30
6:00 PM
Fri, Oct 30
7:00 PM
Fri, Oct 30
8:00 PM
Fri, Oct 30
9:00 PM
Fri, Oct 30
10:00 PM
Fri, Oct 30
11:00 PM
Sat, Oct 31
12:00 AM
Sat, Oct 31
1:00 AM
Sat, Oct 31
2:00 AM
Sat, Oct 31
3:00 AM
Sat, Oct 31
4:00 AM
Sat, Oct 31
5:00 AM
Condition
Clouds

Clouds

Clouds

Rain

Rain

Rain

Rain

Rain

Rain

Rain

Rain

Rain

Rain

Rain

Rain

Rain

Rain

Rain

Rain

Rain

Rain

Rain

Rain

Rain

Rain

Rain

Rain

Rain

Clouds

Clouds

Clouds

Clouds

Clouds

Clouds

Clouds

Clouds

Clouds

Clouds

Clouds

Clouds

Clouds

Clear

Clear

Clear

Clear

Clear

Clear

Clear
Temperature 48°F50°F50°F50°F49°F49°F49°F49°F49°F48°F48°F48°F48°F48°F48°F48°F48°F48°F47°F46°F46°F45°F45°F44°F43°F40°F38°F37°F36°F35°F35°F35°F36°F36°F37°F37°F36°F35°F35°F35°F35°F34°F34°F34°F34°F34°F34°F34°F
Feels Like 43°F45°F45°F45°F44°F43°F43°F41°F41°F41°F39°F38°F37°F36°F36°F37°F38°F37°F35°F35°F36°F35°F33°F33°F30°F28°F24°F22°F21°F21°F22°F23°F24°F24°F25°F26°F26°F26°F26°F27°F27°F27°F27°F27°F27°F27°F27°F26°F
Cloudiness 100%100%100%100%100%100%100%100%100%100%100%100%100%100%100%100%100%100%100%100%100%100%100%100%100%100%100%100%100%100%100%100%100%100%100%100%95%81%68%13%12%8%6%5%4%0%0%0%
Visibility 6 mi6 mi6 mi4 mi4 mi4 mi3 mi4 mi4 mi3 mi5 mi4 mi5 mi6 mi6 mi6 mi6 mi6 mi6 mi6 mi6 mi6 mi6 mi3 mi3 mi4 mi2 mi2 mi3 mi2 mi1 mi2 mi3 mi2 mi6 mi6 mi6 mi6 mi6 mi6 mi6 mi6 mi6 mi6 mi6 mi6 mi6 mi6 mi
Precipitation 0%0%42%100%100%100%100%100%100%100%100%100%100%100%100%99%100%100%100%100%100%100%100%100%100%100%100%100%80%80%80%80%80%71%79%60%33%16%8%0%0%0%0%0%0%0%0%0%
Humidity 93%85%84%85%89%89%90%91%90%90%90%90%90%89%88%87%86%86%86%86%86%86%87%88%89%90%93%94%92%93%93%92%92%92%87%84%84%85%85%84%84%85%86%87%88%88%90%90%
Dew Point 46°F46°F45°F46°F46°F46°F46°F46°F46°F46°F45°F46°F46°F45°F45°F45°F44°F44°F43°F42°F42°F41°F41°F41°F40°F37°F36°F35°F34°F34°F33°F34°F34°F34°F33°F33°F31°F30°F28°F26°F26°F26°F26°F26°F27°F28°F29°F29°F
Pressure 29.91"29.91"29.91"29.91"29.88"29.85"29.83"29.8"29.77"29.74"29.68"29.65"29.65"29.62"29.62"29.62"29.65"29.68"29.71"29.71"29.71"29.71"29.71"29.71"29.74"29.77"29.77"29.8"29.83"29.83"29.85"29.88"29.91"29.94"29.97"30"30.03"30.09"30.15"30.18"30.21"30.24"30.24"30.27"30.3"30.33"30.36"30.36"
Wind Speed 6.6 mph7.2 mph6.8 mph7.6 mph8.5 mph8.6 mph8.1 mph11.6 mph12.1 mph10.5 mph14.3 mph15.4 mph17.8 mph19.4 mph20 mph16.8 mph16.8 mph17.1 mph17.8 mph17.5 mph14.2 mph15.1 mph17.5 mph16.3 mph18.8 mph16.5 mph18.7 mph21 mph21.4 mph19.2 mph17.5 mph16.4 mph14.8 mph14.6 mph14.4 mph13.7 mph11 mph9.6 mph8.5 mph6.9 mph6.1 mph6 mph5.3 mph5 mph5.1 mph5.6 mph6.1 mph6.5 mph
Wind
Direction
56°
NE
57°
ENE
49°
NE
55°
NE
50°
NE
63°
ENE
87°
E
67°
ENE
65°
ENE
48°
NE
47°
NE
44°
NE
44°
NE
38°
NE
40°
NE
40°
NE
35°
NE
28°
NNE
33°
NNE
22°
NNE
23°
NNE
31°
NNE
43°
NE
29°
NNE
31°
NNE
21°
NNE
23°
NNE
28°
NNE
35°
NE
32°
NNE
20°
NNE
24°
NNE
16°
NNE

N

N

N

N
14°
NNE
16°
NNE
17°
NNE

N
358°
N
346°
NNW
338°
NNW
332°
NNW
332°
NNW
342°
NNW
348°
NNW

Daily Forecast

Date High Low Precip. Humidity
Today
Oct 29

Rain
52 °F
48 °F
100%
89%
Friday
Oct 30

Rain
46 °F
34 °F
100%
93%
Saturday
Oct 31

Clear
45 °F
34 °F
0%
66%
Sunday
Nov 1

Rain
58 °F
48 °F
20%
72%
Monday
Nov 2

Clear
47 °F
37 °F
9%
60%
Tuesday
Nov 3

Clouds
41 °F
32 °F
32%
76%
Wednesday
Nov 4

Clear
53 °F
32 °F
0%
53%
Thursday
Nov 5

Clear
60 °F
53 °F
0%
63%
Friday
Nov 6

Clear
63 °F
50 °F
0%
67%
Saturday
Nov 7

Clear
58 °F
46 °F
0%
43%
Sunday
Nov 8

Clear
50 °F
40 °F
0%
53%
Monday
Nov 9

Clouds
59 °F
48 °F
0%
66%
Tuesday
Nov 10

Clear
63 °F
57 °F
0%
78%
Wednesday
Nov 11

Clouds
65 °F
57 °F
0%
83%
Thursday
Nov 12

Rain
66 °F
54 °F
28%
77%
Friday
Nov 13

Clear
51 °F
42 °F
0%
53%


Temperature 8-14 Day Outlook



Precipitation 8-14 Day Outlook




Quick Links
New Haven News
New Haven Photos
New Haven Videos




About Us
Contact Us
Site Map
Search Site
Advertise With Us
   
NewHaven.USCoast.info
THE NEW HAVEN WEBSITE

Copyright 2020, Coastal Town
Privacy    |    Legal